Waarnemingen

Advertentie
Mijn weer
Milano/Malpensa, Italië (16066): temperatuur & dauwpunt: 16.02.2018 21:00:00 - 22.02.2018 21:00:00 (CET)Milano/Malpensa, Italië (16066): windsnelheid: 16.02.2018 21:00:00 - 22.02.2018 21:00:00 (CET)Milano/Malpensa, Italië (16066): windrichting: 16.02.2018 21:00:00 - 22.02.2018 21:00:00 (CET)Milano/Malpensa, Italië (16066): luchtdruk: 16.02.2018 21:00:00 - 22.02.2018 21:00:00 (CET)Milano/Malpensa, Italië (16066): zicht: 16.02.2018 21:00:00 - 22.02.2018 21:00:00 (CET)Milano/Malpensa, Italië (16066): neerslag: 16.02.2018 21:00:00 - 22.02.2018 21:00:00 (CET)
Datum & Tijd tt [°C] td [°C] ff [km/u] ff [kn] dd ppp [hPa] vv [km] rr [mm]
22.02.2018 21:00:00 3,0 2,0 8 4 ZW - 5 -
22.02.2018 20:00:00 3,0 2,0 9 5 ZW - 5 -
22.02.2018 19:00:00 3,7 2,5 5 3 ZZW 1009,1 5 -
22.02.2018 18:00:00 4,0 2,0 5 3 ZW - 5 -
22.02.2018 17:00:00 4,0 2,0 5 3 ZZW - 6 -
22.02.2018 16:00:00 4,9 1,3 13 7 ZZW 1008,1 6 0,0
22.02.2018 15:00:00 6,0 0,0 4 2 - - 8 -
22.02.2018 14:00:00 6,0 0,0 9 5 ZW - 10 -
22.02.2018 13:00:00 5,8 -0,3 5 3 W 1007,8 10 -
22.02.2018 12:00:00 5,0 0,0 8 4 WNW - 7 -
22.02.2018 11:00:00 4,0 1,0 9 5 WNW - 6 -
22.02.2018 10:00:00 3,3 0,7 4 2 - 1007,8 5 0,0
22.02.2018 09:00:00 3,0 0,0 8 4 WZW - 5 -
22.02.2018 08:00:00 3,0 -1,0 8 4 Z - 7 -
22.02.2018 07:00:00 2,1 -1,9 4 2 ZZO 1006,4 10 -
22.02.2018 06:00:00 2,0 -2,0 4 2 NNW - 10 -
22.02.2018 05:00:00 2,0 -2,0 5 3 NNO - 10 -
22.02.2018 04:00:00 1,9 -2,0 8 4 N 1006,5 10 0,0
22.02.2018 03:00:00 0,0 -3,0 9 5 N - 10 -
22.02.2018 02:00:00 2,0 -3,0 4 2 NNO - 10 -
22.02.2018 01:00:00 2,3 -2,8 5 3 N 1007,8 10 -
22.02.2018 00:00:00 4,0 -2,0 5 3 N - 10 -
21.02.2018 23:00:00 5,0 -2,0 4 2 - - 10 -
21.02.2018 22:00:00 5,2 -2,1 11 6 OZO 1008,4 10 0,0
21.02.2018 21:00:00 6,0 -2,0 13 7 ZO - 10 -
21.02.2018 20:00:00 6,0 -2,0 8 4 Z - 10 -
21.02.2018 19:00:00 6,6 -3,0 13 7 Z 1007,5 10 -
21.02.2018 18:00:00 8,0 -4,0 16 9 ZZW - 10 -
21.02.2018 17:00:00 10,0 -6,0 9 5 ZW - 10 -
21.02.2018 16:00:00 10,4 -6,7 8 4 ZZW 1007,4 10 0,0
21.02.2018 15:00:00 10,0 -7,0 8 4 ZW - 10 -
21.02.2018 14:00:00 10,0 -7,0 8 4 ZZW - 10 -
21.02.2018 13:00:00 9,4 -6,9 5 3 - 1009,6 10 -
21.02.2018 12:00:00 8,0 -4,0 5 3 - - 10 -
21.02.2018 11:00:00 6,0 -1,0 13 7 NNW - 5 -
21.02.2018 10:00:00 3,8 0,2 11 6 N 1009,6 3,0 0,0
21.02.2018 09:00:00 -1,0 -2,0 9 5 NNO - 3,0 -
21.02.2018 08:00:00 -3,0 -3,0 8 4 NNO - 4,0 -
21.02.2018 07:00:00 -2,4 -3,3 11 6 N 1008,9 10 -
21.02.2018 06:00:00 -3,0 -4,0 11 6 N - 10 -
21.02.2018 05:00:00 -2,0 -4,0 8 4 N - 10 -
21.02.2018 04:00:00 -1,8 -2,8 9 5 N 1009,3 10 0,0
21.02.2018 03:00:00 -2,0 -3,0 9 5 N - 10 -
21.02.2018 02:00:00 -2,0 -4,0 9 5 NNO - 10 -
21.02.2018 01:00:00 -1,2 -3,1 8 4 N 1009,9 10 -
21.02.2018 00:00:00 2,0 -2,0 4 2 NNO - 10 -
20.02.2018 23:00:00 3,0 -1,0 9 5 ZO - 10 -
20.02.2018 22:00:00 3,6 -0,6 9 5 ZO 1009,6 10 0,0
20.02.2018 21:00:00 4,0 -1,0 8 4 ZZO - 8 -
20.02.2018 20:00:00 4,0 -1,0 8 4 ZZO - 10 -
20.02.2018 19:00:00 4,3 -2,2 4 2 Z 1008,2 8 -
20.02.2018 18:00:00 6,0 -2,0 9 5 Z - 8 -
20.02.2018 17:00:00 8,0 -1,0 8 4 ZZW - 10 -
20.02.2018 16:00:00 7,9 -1,4 8 4 Z 1007,5 10 0,0
20.02.2018 15:00:00 8,0 -2,0 8 4 ZW - 10 -
20.02.2018 14:00:00 8,0 -1,0 4 2 - - 10 -
20.02.2018 13:00:00 6,8 -1,4 4 2 - 1008,9 10 -
20.02.2018 12:00:00 6,0 -1,0 5 3 - - 10 -
20.02.2018 11:00:00 5,0 -1,0 8 4 WZW - 10 -
20.02.2018 10:00:00 4,1 -0,9 5 3 W 1010,4 10 0,0
20.02.2018 09:00:00 3,0 0,0 4 2 - - 10 -
20.02.2018 08:00:00 2,0 -1,0 2 1 - - 10 -
20.02.2018 07:00:00 1,1 -0,5 5 3 NNO 1010,2 10 -
20.02.2018 06:00:00 1,0 -1,0 2 1 - - 10 -
20.02.2018 05:00:00 1,0 -1,0 2 1 - - 10 -
20.02.2018 04:00:00 0,3 -1,1 5 3 NNO 1011,1 10 0,0
20.02.2018 03:00:00 0,0 -1,0 5 3 N - 10 -
20.02.2018 02:00:00 0,0 -1,0 4 2 NNO - 10 -
20.02.2018 01:00:00 -0,7 -2,3 5 3 NO 1012,7 10 -
20.02.2018 00:00:00 2,0 -1,0 5 3 N - 10 -
19.02.2018 23:00:00 1,0 -1,0 5 3 NO - 10 -
19.02.2018 22:00:00 1,9 -1,4 2 1 - 1013,9 10 0,0
19.02.2018 21:00:00 3,0 -1,0 2 1 - - 10 -
19.02.2018 20:00:00 4,0 -1,0 4 2 Z - 10 -
19.02.2018 19:00:00 4,6 -0,8 8 4 Z 1015,0 10 -
19.02.2018 18:00:00 6,0 -2,0 2 1 - - 10 -
19.02.2018 17:00:00 6,0 -2,0 8 4 - - 10 -
19.02.2018 16:00:00 6,3 -1,4 8 4 ZW 1015,6 10 0,0
19.02.2018 15:00:00 7,0 -1,0 8 4 ZO - 10 -
19.02.2018 14:00:00 6,0 -1,0 5 3 ZZO - 10 -
19.02.2018 13:00:00 5,5 -1,0 5 3 ZZO 1018,0 10 -
19.02.2018 12:00:00 6,0 -1,0 5 3 - - 10 -
19.02.2018 11:00:00 5,0 0,0 2 1 - - 10 -
19.02.2018 10:00:00 5,0 0,9 2 1 - 1019,1 10 0,0
19.02.2018 09:00:00 4,0 2,0 0 0 N - 10 -
19.02.2018 08:00:00 3,0 2,0 2 1 O - 10 -
19.02.2018 07:00:00 3,2 1,7 5 3 NO 1019,4 10 -
19.02.2018 06:00:00 3,0 2,0 5 3 NNO - 10 -
19.02.2018 05:00:00 3,0 2,0 8 4 N - 10 -
19.02.2018 04:00:00 3,4 1,6 9 5 N 1019,8 10 0,0
19.02.2018 03:00:00 4,0 1,0 4 2 NNO - 10 -
19.02.2018 02:00:00 4,0 1,0 5 3 NNO - 10 -
19.02.2018 01:00:00 4,4 0,8 5 3 O 1021,1 10 -
19.02.2018 00:00:00 5,0 1,0 8 4 OZO - 10 -
18.02.2018 23:00:00 5,0 3,0 5 3 - - 10 -
18.02.2018 22:00:00 5,5 2,5 5 3 ZZO 1021,5 10 0,0
18.02.2018 21:00:00 6,0 3,0 2 1 ZO - 10 -
18.02.2018 20:00:00 6,0 3,0 9 5 OZO - 9 -
18.02.2018 19:00:00 5,9 3,8 13 7 ZZO 1021,0 6 -
18.02.2018 18:00:00 7,0 3,0 13 7 ZO - 5 -
18.02.2018 17:00:00 7,0 3,0 5 3 ZZO - 4,5 -
18.02.2018 16:00:00 7,4 2,8 2 1 - 1019,9 3,5 0,0
18.02.2018 15:00:00 7,0 3,0 2 1 - - 4,0 -
18.02.2018 14:00:00 7,0 3,0 9 5 ZZO - 2,0 -
18.02.2018 13:00:00 7,8 2,5 5 3 ZW 1019,3 2,5 -
18.02.2018 12:00:00 6,0 3,0 4 2 - - 1,5 -
18.02.2018 11:00:00 4,0 2,0 5 3 N - 1,5 -
18.02.2018 10:00:00 3,3 2,5 5 3 O 1018,7 1,4 0,0
18.02.2018 09:00:00 3,0 2,0 5 3 NNO - 0,9 -
18.02.2018 08:00:00 2,0 2,0 5 3 OZO - 0,7 -
18.02.2018 07:00:00 2,4 2,3 2 1 - 1017,6 0,5 -
18.02.2018 06:00:00 3,0 3,0 4 2 OZO - 0,1 -
18.02.2018 05:00:00 3,0 3,0 2 1 - - 0,1 -
18.02.2018 04:00:00 3,4 3,3 4 2 - 1017,0 0,1 0,0
18.02.2018 03:00:00 4,0 4,0 4 2 - - 0,1 -
18.02.2018 02:00:00 4,0 4,0 2 1 - - 0,1 -
18.02.2018 01:00:00 4,1 3,9 2 1 - 1017,6 0,1 -
18.02.2018 00:00:00 4,0 4,0 2 1 - - 0,2 -
17.02.2018 23:00:00 5,0 4,0 2 1 - - 0,8 -
17.02.2018 22:00:00 4,7 4,2 9 5 WZW 1017,8 1,2 0,0
17.02.2018 21:00:00 5,0 4,0 4 2 - - 2,5 -
17.02.2018 20:00:00 6,0 4,0 5 3 WZW - 2,5 -
17.02.2018 19:00:00 5,8 4,0 8 4 ZW 1018,6 2,5 -
17.02.2018 18:00:00 6,0 5,0 9 5 WZW - 2,0 -
17.02.2018 17:00:00 7,0 4,0 5 3 ZW - 2,5 -
17.02.2018 16:00:00 7,3 4,0 5 3 ZZW 1019,2 2,5 0,0
17.02.2018 15:00:00 8,0 4,0 5 3 Z - 3,0 -
17.02.2018 14:00:00 8,0 4,0 4 2 - - 3,5 -
17.02.2018 13:00:00 7,1 4,3 5 3 W 1021,5 3,0 -
17.02.2018 12:00:00 6,0 5,0 9 5 WZW - 3,5 -
17.02.2018 11:00:00 7,0 4,0 2 1 - - 3,5 -
17.02.2018 10:00:00 5,8 4,8 11 6 N 1023,0 2,5 0,0
17.02.2018 09:00:00 5,0 4,0 5 3 NNO - 1,5 -
17.02.2018 08:00:00 5,0 4,0 0 0 N - 1,5 -
17.02.2018 07:00:00 4,7 3,9 4 2 N 1024,2 2,5 -
17.02.2018 06:00:00 5,0 4,0 8 4 N - 3,0 -
17.02.2018 05:00:00 4,0 4,0 11 6 N - 2,5 -
17.02.2018 04:00:00 4,4 3,7 9 5 N 1025,2 2,5 0,0
17.02.2018 03:00:00 4,0 4,0 9 5 N - 2,5 -
17.02.2018 02:00:00 4,0 4,0 11 6 N - 2,5 -
17.02.2018 01:00:00 4,4 3,6 8 4 N 1026,0 2,5 -
17.02.2018 00:00:00 5,0 3,0 8 4 ONO - 4,0 -
16.02.2018 23:00:00 6,0 1,0 5 3 OZO - 5 -
16.02.2018 22:00:00 6,0 0,2 4 2 OZO 1024,8 9 0,0
16.02.2018 21:00:00 6,0 0,0 8 4 ZO - 10 -

tt = temperatuur
td = dauwpunt
ff = windsnelheid
dd = windrichting
ppp = luchtdruk
vv = zicht
rr = neerslag

Weerstations in de omgeving